ONEWEB-0264 (48982 NORAD) Tracking and Keplerian Element Data

This shows tracking and keplerian element data for the satellite.

Feedback or suggestion? Click here.




ElementValue
Catalog48982
NameONEWEB-0264
Epoch Orbit565
Epoch Day211.25001157
Epoch Year2021
RAAN227.4418
Inclination87.4363
Eccentricity0.0009276
Argument of Perigee165.7955
Mean Anonmoly301.7981
Mean Motion14.93191603
Decay Rate-0.01488938
L11 48982U 21060R 21211.25001157 -.01488938 00000-0 -15448+0 0 9992
L22 48982 87.4363 227.4418 0009276 165.7955 301.7981 14.93191603 5656

Live tracking and technical data element details for ONEWEB-0264 (NORAD 48982). ONEWEB-0264 can be tracked NOW for your location showing map with azimuth and elevation plus other details from your city location.

Track the satellite on the map from your city or location and see movement details for azimuth, elevation, latitude, longitude, range, height, and movement on the map or in text.







IsCatalogInMostPopularTable: catalog: 48982, numindb: 4
Update: records affected: 1



GetName: 48982 ONEWEB-0264

Hit Count: updated at: Sat, 31 Jul 2021 14:18:43 GMT